Weather History for Covington, KY

Change the Weather History Date:

Tuesday, November 20, 2012

  Actual Average Record
Temperature  
Mean Temperature 50 °F 43 °F  
Max Temperature 62 °F 52 °F 75 °F (1906)
Min Temperature 37 °F 35 °F 11 °F (1914)
Degree Days  
Heating Degree Days 15 22  
Month to date heating degree days 425 357  
Since 1 July heating degree days 853 719  
Cooling Degree Days 0 0  
Month to date cooling degree days 0 0  
Year to date cooling degree days 1439 1121  
Moisture  
Dew Point 36 °F    
Average Humidity 59    
Maximum Humidity 79    
Minimum Humidity 39    
Precipitation  
Precipitation 0.00 in 0.12 in 1.52 in (1900)
Month to date precipitation 1.02 2.22  
Year to date precipitation 32.97 37.94  
Snow  
Snow 0.00 in 0.00 in 0.50 in (1967)
Month to date snowfall 0.0 0.2  
Since 1 July snowfall T 0.6  
Since 1 September snowfall T 0.6  
Snow Depth 0.00 in    
Sea Level Pressure  
Sea Level Pressure 30.12 in    
Wind  
Wind Speed 1 mph (SSE)    
Max Wind Speed 7 mph    
Max Gust Speed 9 mph    
Visibility 10 miles    
Events      
T = Trace of Precipitation, MM = Missing Value Source: NWS Daily Summary

Daily Weather History Graph

Daily Weather History Graph

Search for Another Location

Airport:

Trip Planner

Search our weather history database for the weather conditions in past years. The results will help you decide how hot, cold, wet, or windy it might be!

Date:

Astronomy

Nov. 20, 2012 Rise Set
Actual Time 7:27 AM EST 5:20 PM EST
Civil Twilight 6:58 AM EST 5:49 PM EST
Nautical Twilight 6:26 AM EST 6:22 PM EST
Astronomical Twilight 5:54 AM EST 6:54 PM EST
Moon 1:03 PM EST (11/20) No Moon Set
Length of Visible Light 10h 50m
Length of Day
9h 53m
Waxing Crescent, 51% of the Moon is Illuminated
Nov 20
Waxing Crescent
Nov 28
Full
Dec 6
Last Quarter
Dec 13
New
Dec 20
First Quarter

Hourly Weather History & Observations

Time (EST) Temp. Windchill Dew Point Humidity Pressure Visibility Wind Dir Wind Speed Gust Speed Precip Events Conditions
12:52 AM 46.0 °F - 37.0 °F 71% 30.17 in 10.0 mi Calm Calm - N/A   Overcast
1:52 AM 45.0 °F - 37.0 °F 74% 30.16 in 10.0 mi Calm Calm - N/A   Mostly Cloudy
2:52 AM 42.8 °F - 35.6 °F 76% 30.16 in 10.0 mi Calm Calm - N/A   Mostly Cloudy
3:52 AM 43.0 °F 41.3 °F 35.1 °F 74% 30.16 in 10.0 mi WSW 3.5 mph - N/A   Mostly Cloudy
4:52 AM 42.1 °F - 35.1 °F 76% 30.15 in 10.0 mi Calm Calm - N/A   Mostly Cloudy
5:52 AM 39.0 °F - 34.0 °F 82% 30.14 in 9.0 mi Calm Calm - N/A   Mostly Cloudy
6:52 AM 41.0 °F - 36.0 °F 82% 30.14 in 10.0 mi Calm Calm - N/A   Overcast
7:52 AM 43.0 °F - 36.0 °F 76% 30.15 in 8.0 mi Calm Calm - N/A   Mostly Cloudy
8:52 AM 46.0 °F - 39.0 °F 76% 30.15 in 9.0 mi Calm Calm - N/A   Scattered Clouds
9:52 AM 53.1 °F - 37.0 °F 55% 30.14 in 10.0 mi Calm Calm - N/A   Mostly Cloudy
10:52 AM 55.9 °F - 35.1 °F 45% 30.15 in 10.0 mi Calm Calm - N/A   Mostly Cloudy
11:52 AM 57.0 °F - 37.0 °F 47% 30.13 in 10.0 mi South 4.6 mph - N/A   Overcast
12:52 PM 59.0 °F - 36.0 °F 42% 30.10 in 10.0 mi SSE 4.6 mph - N/A   Mostly Cloudy
1:52 PM 55.9 °F - 36.0 °F 47% 30.09 in 10.0 mi SSE 3.5 mph - N/A   Mostly Cloudy
2:52 PM 60.1 °F - 35.1 °F 39% 30.07 in 10.0 mi SSE 4.6 mph - N/A   Mostly Cloudy
3:52 PM 59.0 °F - 37.0 °F 44% 30.06 in 10.0 mi ESE 3.5 mph - N/A   Overcast
4:52 PM 57.0 °F - 37.9 °F 49% 30.06 in 10.0 mi ESE 4.6 mph - N/A   Overcast
5:52 PM 55.4 °F - 37.4 °F 51% 30.08 in 10.0 mi Calm Calm - N/A   Overcast
7:52 PM 55.9 °F - 35.1 °F 45% 30.11 in 10.0 mi East 3.5 mph - N/A   Overcast
8:52 PM 55.9 °F - 34.0 °F 44% 30.11 in 10.0 mi Calm Calm - N/A   Overcast
9:52 PM 55.0 °F - 34.0 °F 45% 30.11 in 10.0 mi Calm Calm - N/A   Overcast
10:52 PM 54.0 °F - 34.0 °F 47% 30.12 in 10.0 mi Calm Calm - N/A   Overcast
11:52 PM 48.0 °F - 35.1 °F 61% 30.11 in 10.0 mi Calm Calm - N/A   Scattered Clouds